User: anonymous   Login
Location: Solon
(41.3849°N, 81.4081°W)
Time: 08:50:50
(UTC-04:00)
Language:

CZ-2C R/B - Orbit

View from above orbital plane
View from above orbital plane
View from above satellite
View from above satellite

Ground track
Ground track

The orbit data is extracted from the following two-line orbital elements,

1 28480U 04046B   17291.34135243  .00000026  00000-0  25785-4 0  9990
2 28480  98.1954  19.5987 0141274 220.7491 180.9137 14.25652348671781
Epoch (UTC): 18 October 2017 08:11:32
Eccentricity: 0.0141274
inclination: 98.1954°
perigee height: 705 km
apogee height: 908 km
right ascension of ascending node: 19.5987°
argument of perigee: 220.7491°
revolutions per day: 14.25652348
mean anomaly at epoch: 180.9137°
orbit number at epoch: 67178

The dashed part of the orbit path shows where the satellite is in the earth's shadow,  

DLR